Location: Austin
(30.3000°N, 97.7500°W)
Time: 07:33:48
(UTC-05:00)

Cosmos 909 Rocket - Pass Details

Date: 16 June 2025
Orbit: 986 x 2093 km, 65.9° (Epoch: 07 July)

Event Time Altitude Azimuth Distance (km) Brightness Sun altitude
Rises 00:15:56 0° 331° (NNW) 4,257 8.4 -33.3°
Reaches altitude 10° 00:18:56 10° 329° (NNW) 3,146 7.4 -33.6°
Enters shadow 00:25:09 60° 290° (WNW) 1,217 4.5 -34.0°
